Weather History for Holland, MI

Change the Weather History Date:

Saturday, June 23, 2012

  Actual Average Record
Temperature  
Mean Temperature 63 °F 70 °F  
Max Temperature 84 °F 81 °F 94 °F (1975)
Min Temperature 42 °F 60 °F 41 °F (1979)
Degree Days  
Heating Degree Days 2 1  
Month to date heating degree days 44  
Since 1 June heating degree days 44  
Since 1 July heating degree days 6156  
Cooling Degree Days 0 6  
Month to date cooling degree days 99  
Year to date cooling degree days 141  
Since 1 June cooling degree days 99  
Growing Degree Days 20 (Base 50)    
Moisture  
Dew Point 54 °F    
Average Humidity 64    
Maximum Humidity 93    
Minimum Humidity 34    
Precipitation  
Precipitation 0.00 in 0.14 in 1.30 in (2010)
Month to date precipitation 0.91 3.31  
Year to date precipitation 15.90  
Sea Level Pressure  
Sea Level Pressure 30.03 in    
Wind  
Wind Speed 1 mph (West)    
Max Wind Speed 10 mph    
Max Gust Speed 14 mph    
Visibility 6 miles    
Events Fog    
T = Trace of Precipitation, MM = Missing Value Source: NWS Daily Summary

Daily Weather History Graph

Daily Weather History Graph

Search for Another Location

Airport:

Trip Planner

Search our weather history database for the weather conditions in past years. The results will help you decide how hot, cold, wet, or windy it might be!

Date:

Astronomy

Jun. 23, 2012 Rise Set
Actual Time 6:06 AM EDT 9:26 PM EDT
Civil Twilight 5:31 AM EDT 10:01 PM EDT
Nautical Twilight 4:46 AM EDT 10:47 PM EDT
Astronomical Twilight 3:49 AM EDT 11:43 PM EDT
Moon 10:13 AM EDT (6/23) 11:48 PM EDT (6/23)
Length of Visible Light 16h 29m
Length of Day
15h 19m
Waxing Crescent, 16% of the Moon is Illuminated
Jun 23
Waxing Crescent
Jun 26
First Quarter
Jul 3
Full
Jul 10
Last Quarter
Jul 19
New

Hourly Weather History & Observations

Time (EDT) Temp. Heat Index Dew Point Humidity Pressure Visibility Wind Dir Wind Speed Gust Speed Precip Events Conditions
12:53 AM 60.1 °F - 55.9 °F 86% 30.00 in 10.0 mi Calm Calm - N/A   Clear
1:53 AM 59.0 °F - 55.9 °F 90% 30.01 in 10.0 mi Calm Calm - N/A   Clear
2:53 AM 57.9 °F - 55.0 °F 90% 30.02 in 10.0 mi Calm Calm - N/A   Unknown
3:53 AM 57.9 °F - 54.0 °F 87% 30.02 in 10.0 mi Calm Calm - N/A   Unknown
4:04 AM 57.2 °F - 53.6 °F 88% 30.03 in 1.5 mi Calm Calm - N/A   Mist
4:06 AM 57.2 °F - 53.6 °F 88% 30.03 in 0.8 mi Calm Calm - N/A   Mist
4:13 AM 57.2 °F - 53.6 °F 88% 30.03 in 0.5 mi Calm Calm - N/A Fog Fog
4:19 AM 57.2 °F - 53.6 °F 88% 30.03 in 1.0 mi Calm Calm - N/A   Mist
4:22 AM 57.2 °F - 53.6 °F 88% 30.03 in 1.8 mi Calm Calm - N/A   Partly Cloudy
4:29 AM 57.2 °F - 53.6 °F 88% 30.03 in 10.0 mi Calm Calm - N/A   Partly Cloudy
4:46 AM 57.2 °F - 53.6 °F 88% 30.03 in 1.8 mi Calm Calm - N/A   Clear
4:53 AM 57.0 °F - 54.0 °F 89% 30.02 in 2.0 mi Calm Calm - N/A   Clear
4:57 AM 57.2 °F - 53.6 °F 88% 30.03 in 1.2 mi Calm Calm - N/A   Clear
5:09 AM 57.2 °F - 53.6 °F 88% 30.03 in 2.0 mi Calm Calm - N/A   Clear
5:17 AM 57.2 °F - 53.6 °F 88% 30.02 in 1.8 mi Calm Calm - N/A   Clear
5:21 AM 55.4 °F - 53.6 °F 94% 30.02 in 3.0 mi Calm Calm - N/A   Clear
5:32 AM 55.4 °F - 53.6 °F 94% 30.03 in 1.8 mi Calm Calm - N/A   Mist
5:37 AM 57.2 °F - 53.6 °F 88% 30.03 in 0.8 mi Calm Calm - N/A   Mist
5:53 AM 55.9 °F - 53.1 °F 90% 30.02 in 1.2 mi Calm Calm - N/A   Mist
5:55 AM 55.4 °F - 53.6 °F 94% 30.02 in 2.0 mi Calm Calm - N/A   Mist
6:02 AM 57.2 °F - 53.6 °F 88% 30.03 in 3.0 mi Calm Calm - N/A   Clear
6:09 AM 55.4 °F - 53.6 °F 94% 30.04 in 2.0 mi Calm Calm - N/A   Clear
6:18 AM 55.4 °F - 51.8 °F 88% 30.04 in 8.0 mi Calm Calm - N/A   Clear
6:53 AM 57.9 °F - 55.0 °F 90% 30.03 in 3.0 mi Calm Calm - N/A   Mist
7:53 AM 64.0 °F - 57.9 °F 80% 30.04 in 9.0 mi Calm Calm - N/A   Unknown
8:53 AM 69.1 °F - 55.9 °F 63% 30.06 in 10.0 mi East 5.8 mph - N/A   Clear
9:53 AM 73.9 °F - 55.9 °F 53% 30.05 in 10.0 mi East 3.5 mph - N/A   Clear
10:53 AM 78.1 °F - 50.0 °F 37% 30.05 in 10.0 mi SE 5.8 mph - N/A   Clear
11:53 AM 81.0 °F - 52.0 °F 36% 30.06 in 10.0 mi Variable 4.6 mph - N/A   Clear
12:53 PM 81.0 °F 80.4 °F 53.1 °F 38% 30.05 in 10.0 mi Variable 3.5 mph - N/A   Clear
2:53 PM 84.0 °F 82.5 °F 53.1 °F 34% 30.05 in 10.0 mi West 9.2 mph - N/A   Clear
3:53 PM 82.0 °F - 52.0 °F 35% 30.04 in 10.0 mi WNW 4.6 mph - N/A   Clear
4:53 PM 82.0 °F - 51.1 °F 34% 30.04 in 10.0 mi West 4.6 mph - N/A   Clear
5:53 PM 81.0 °F - 51.1 °F 35% 30.03 in 10.0 mi West 4.6 mph - N/A   Clear
6:53 PM 80.1 °F - 51.1 °F 36% 30.01 in 10.0 mi West 3.5 mph - N/A   Clear
7:53 PM 79.0 °F - 51.1 °F 38% 30.03 in 10.0 mi Calm Calm - N/A   Scattered Clouds
8:53 PM 77.0 °F - 53.1 °F 43% 30.02 in 10.0 mi Calm Calm - N/A   Clear
9:53 PM 73.9 °F - 53.1 °F 48% 30.02 in 10.0 mi Calm Calm - N/A   Clear
10:53 PM 75.0 °F - 54.0 °F 48% 30.03 in 10.0 mi Calm Calm - N/A   Scattered Clouds
11:53 PM 72.0 °F - 55.9 °F 57% 30.04 in 10.0 mi Calm Calm - N/A   Clear